Location: Lombard
(41.8800°N, 88.0080°W)
Time: 06:09:35
(UTC-05:00)

Vanguard 3 - Pass Details

Date: 31 January 2023
Orbit: 508 x 3249 km, 33.4° (Epoch: 27 March)

Event Time Altitude Azimuth Distance (km) Brightness Sun altitude
Rises 00:29:46 0° 277° (W) 6,275 11.7 -65.0°
Enters shadow 00:30:31 - 276° (W) 6,131 11.6 -65.0°
Exits shadow 01:10:20 - 137° (SE) 6,224 11.6 -61.9°
Sets 01:12:22 0° 135° (SE) 6,594 11.7 -61.7°
